sat.trackr.live / text

‹ back to catalog

STARLINK-4054

NORAD 53158 · 2022-083AC

PAYLOAD ACTIVE UNKNOWN

§ Identity

Operator
Country
US
Launch date
2022-07-17
Launch site
AFETR
Launch vehicle
Mass (kg)
RCS (m²)

Purposes: comms

External: N2YO · Heavens-Above · Gunter

§ Orbital elements

Epoch: 2026-05-24T20:05:12.077376Z

Period
95.44 min
Inclination
53.2143°
Eccentricity
0.0001110
Mean motion
15.08843826 rev/d
Perigee alt
539.0 km
Apogee alt
540.5 km
Semi-major
6,917.9 km
B*
7.9963e-5
RAAN
182.2807°
Arg perigee
81.3653°
Mean anomaly
278.7465°
Rev number
21,285

§ Raw data

STARLINK-40541 53158U 22083AC  26144.83694534  .00000985  00000+0  79963-4 0  99952 53158  53.2143 182.2807 0001110  81.3653 278.7465 15.08843826212851

JSON: /api/v1/satellites/53158 · /tle

For live sub-satellite position, see the globe view (requires WebGL).

§ Visibility from observer

Set your observer location to see the next 7 days of passes ≥ 10°. The values pass through the URL so the page stays shareable.

No JS? Fill the form by hand. The geolocation button needs JavaScript.